Regional Weather Roundup
Issued by NWS

Home | Current Version | Previous Version | Text Only | Print | Product List | Glossary Off
Versions: 1 2 3 4 5 6 7 8 9 10 11 12 13 14 15 16 17 18 19 20 21 22 23 24 25 26 27 28 29 30 31 32 33 34 35 36 37 38 39 40 41 42 43 44 45 46 47 48 49 50

000
ASUS43 KDTX 070001
RWRMI
MICHIGAN HOURLY REGIONAL WEATHER ROUNDUP
NATIONAL WEATHER SERVICE DETROIT/PONTIAC MI
700 PM EST SAT FEB 06 2016

NOTE: "FAIR" INDICATES FEW OR NO CLOUDS BELOW 12,000 FEET WITH NO
SIGNIFICANT WEATHER AND/OR OBSTRUCTION TO VISIBILITY.

MIZ047>049-052>055-059>063-066>070-074>076-081>083-070100-
SOUTHEAST LOWER MICHIGAN

CITY           SKY/WX    TMP DP  RH WIND       PRES   REMARKS
ADRIAN         CLEAR     32  22  66 SW8       30.18S WCI  25
6HR MIN TEMP:  31; 6HR MAX TEMP:  42;

ALMA           CLOUDY    33  28  81 SW10      30.15S WCI  25
ANN ARBOR      MOCLDY    32  23  69 SW7       30.17R WCI  26
BAD AXE        CLOUDY    34  23  65 SW13      30.13S WCI  25
CARO           CLOUDY    32  22  67 SW8       30.14R WCI  25
DETROIT CITY   MOCLDY    35  23  61 SW13      30.17S WCI  26
6HR MIN TEMP:  35; 6HR MAX TEMP:  39;

DETROIT        PTCLDY    33  24  69 S8        30.19S WCI  26
6HR MIN TEMP:  33; 6HR MAX TEMP:  39;

FLINT          CLOUDY    35  21  56 SW7       30.16R WCI  29
6HR MIN TEMP:  35; 6HR MAX TEMP:  39;

GROSSE ILE     PTCLDY    36  25  64 SW7       30.18R WCI  30
HILLSDALE      MOCLDY    33  22  64 S3        30.16S
6HR MIN TEMP:  33; 6HR MAX TEMP:  37;

HOWELL         MOCLDY    32  20  61 SW5       30.15S WCI  28

CITY           SKY/WX    TMP DP  RH WIND       PRES   REMARKS
JACKSON        CLOUDY    34  20  56 SW7       30.16R WCI  28
6HR MIN TEMP:  33; 6HR MAX TEMP:  37;

LAMBERTVILLE   CLEAR     32  22  67 SW3       30.20S
6HR MIN TEMP:  32; 6HR MAX TEMP:  37;

LANSING        CLOUDY    33  20  58 SW6       30.16S WCI  28
6HR MIN TEMP:  33; 6HR MAX TEMP:  37;

LAPEER         FAIR      34  21  60 W10       30.15R WCI  26
6HR MIN TEMP:  34; 6HR MAX TEMP:  37;

MASON          CLOUDY    32  22  67 CALM      30.16R
MONROE         PTCLDY    33  24  68 SW7       30.18S WCI  27
6HR MIN TEMP:  33; 6HR MAX TEMP:  37;

MT. CLEMENS    CLOUDY    36  24  63 SW13      30.15R WCI  27
6HR MIN TEMP:  36; 6HR MAX TEMP:  41;

PONTIAC        CLOUDY    34  19  54 W10       30.15R WCI  26
6HR MIN TEMP:  34; 6HR MAX TEMP:  39;

PORT HOPE        N/A     34  24  67 SW8       30.11R WCI  27
6HR MIN TEMP:  33; 6HR MAX TEMP:  37;

PORT HURON     CLOUDY    32  28  86 S8        30.16R WCI  25
TRI CITIES     CLOUDY    35  25  66 W13       30.15R WCI  26
6HR MIN TEMP:  34; 6HR MAX TEMP:  37;

MIDLAND        CLOUDY    33  25  70 SW8       30.13S WCI  27
6HR MIN TEMP:  33; 6HR MAX TEMP:  36;

TROY           CLOUDY    36  24  63 SW8       30.18R WCI  29
SAGINAW HB     CLOUDY    34  27  75 SW7       30.15R WCI  28
$$
MIZ043>046-050>051-056>058-064>065-071>073-077>080-070100-
SOUTHWEST LOWER MICHIGAN

CITY           SKY/WX    TMP DP  RH WIND       PRES   REMARKS
BATTLE CREEK   CLOUDY    34  24  67 SW3       30.16R
6HR MIN TEMP:  33; 6HR MAX TEMP:  36;

BENTON HARBOR  PTCLDY    36  27  69 SW6       30.16S WCI  31
6HR MIN TEMP:  35; 6HR MAX TEMP:  39;

BIG RAPIDS     CLOUDY    32  28  86 SW5       30.10S WCI  27
6HR MIN TEMP:  32; 6HR MAX TEMP:  33;

COLDWATER      MOCLDY    34  26  74 SW6       30.16S WCI  29
6HR MIN TEMP:  33; 6HR MAX TEMP:  37;

FREMONT        CLOUDY    32  28  86 SW8       30.12S WCI  25
HOLLAND        CLOUDY    34  29  82 SW7       30.15S WCI  28
6HR MIN TEMP:  34; 6HR MAX TEMP:  35;

GRAND RAPIDS   CLOUDY    34  26  72 SW9       30.15R WCI  27
6HR MIN TEMP:  33; 6HR MAX TEMP:  35;

IONIA          CLOUDY    32  25  76 SW6       30.14S WCI  26
6HR MIN TEMP:  32; 6HR MAX TEMP:  33;

KALAMAZOO      CLOUDY    35  25  66 SW5       30.15F WCI  31
6HR MIN TEMP:  33; 6HR MAX TEMP:  37;

LUDINGTON      CLOUDY    32  28  83 SW8       30.11F WCI  25
6HR MIN TEMP:  32; 6HR MAX TEMP:  32;

MARSHALL       CLOUDY    34  22  62 SW3       30.15S
6HR MIN TEMP:  34; 6HR MAX TEMP:  36;

MOUNT PLEASANT CLOUDY    33  26  75 SW7       30.12S WCI  27
6HR MIN TEMP:  33; 6HR MAX TEMP:  36;

MUSKEGON       CLOUDY    34  27  75 SW7       30.15R WCI  28
6HR MIN TEMP:  34; 6HR MAX TEMP:  36;

SOUTH HAVEN    CLOUDY    36  29  76 SW8       30.15S WCI  29
$$
MIZ016>042-070100-
NORTHERN LOWER MICHIGAN

CITY           SKY/WX    TMP DP  RH WIND       PRES   REMARKS
ALPENA         CLOUDY    31  23  72 W6        30.08S WCI  25
6HR MIN TEMP:  30; 6HR MAX TEMP:  32;

BEAVER ISLAND  CLOUDY    30  25  83 SW10      30.03F WCI  21
6HR MIN TEMP:  29; 6HR MAX TEMP:  31;

BELLAIRE       CLOUDY    31  26  80 SW5       30.08F WCI  26
6HR MIN TEMP:  30; 6HR MAX TEMP:  31;

CADILLAC       CLOUDY    29  26  86 SW8       30.06S WCI  21
CHARLEVOIX     CLOUDY    31  26  81 S6        30.08F WCI  25
FRANKFORT      CLOUDY    32  27  80 SW7       30.08S WCI  26
GAYLORD        CLOUDY    27  24  89 SW9       30.04R WCI  18
6HR MIN TEMP:  26; 6HR MAX TEMP:  27; 6HR PCP: TRACE;

GRAYLING       CLOUDY    29  24  81 SW7       30.07S WCI  22
6HR MIN TEMP:  28; 6HR MAX TEMP:  29;

HARBOR SPRINGS CLOUDY    30  25  81 SW7       30.04F WCI  23
HOUGHTON LAKE  CLOUDY    30  24  78 SW9       30.08S WCI  22
6HR MIN TEMP:  29; 6HR MAX TEMP:  30;

MANISTEE       CLOUDY    32  25  74 SW7       30.10S WCI  26
OSCODA         CLOUDY    32  25  74 W3        30.10S
6HR MIN TEMP:  32; 6HR MAX TEMP:  34;

PELLSTON       CLOUDY    30  23  75 S5        30.05S WCI  25
6HR MIN TEMP:  29; 6HR MAX TEMP:  30;

ROGERS CITY    CLOUDY    29  21  71 SW7       30.07S WCI  22
TRAVERSE CITY  CLOUDY    31  24  75 SW5       30.07S WCI  26
6HR MIN TEMP:  30; 6HR MAX TEMP:  32;

$$
MIZ007>008-015-070100-
EASTERN UPPER MICHIGAN

CITY           SKY/WX    TMP DP  RH WIND       PRES   REMARKS
KINROSS        CLOUDY    27  25  93 SW5       30.01S WCI  21
6HR MIN TEMP:  27; 6HR MAX TEMP:  30;

MACKINAC ISLAN CLOUDY    28  22  78 SW10G16   30.03S WCI  19
6HR MIN TEMP:  28; 6HR MAX TEMP:  30;

NEWBERRY       CLOUDY    26  21  80 SW9       29.99S WCI  17
6HR MIN TEMP:  26; 6HR MAX TEMP:  30;

S. S. MARIE    CLOUDY    28  23  81 CALM      30.01S
6HR MIN TEMP:  28; 6HR MAX TEMP:  29; 6HR PCP: TRACE;

$$
MIZ004>006-011>014-085-070100-
CENTRAL UPPER MICHIGAN

CITY           SKY/WX    TMP DP  RH WIND       PRES   REMARKS
MANISTIQUE     CLOUDY    28  23  80 SW9       30.01F WCI  20
6HR MIN TEMP:  28; 6HR MAX TEMP:  32;

ESCANABA       CLOUDY    30  23  74 SW7       30.01S WCI  23
6HR MIN TEMP:  28; 6HR MAX TEMP:  32;

MENOMINEE      CLOUDY    28  23  80 SW8       30.02F WCI  20
6HR MIN TEMP:  28; 6HR MAX TEMP:  30;

SAWYER-GWINN   CLOUDY    27  19  74 S10       29.94F WCI  17
$$
MIZ001>003-009>011-084-070100-
WESTERN UPPER MICHIGAN

CITY           SKY/WX    TMP DP  RH WIND       PRES   REMARKS
IRON MOUNTAIN  CLOUDY    29  20  69 S7        29.94F WCI  22
6HR MIN TEMP:  26; 6HR MAX TEMP:  30;

HOUGHTON       CLOUDY    28  19  69 E8        29.87F WCI  20
6HR MIN TEMP:  26; 6HR MAX TEMP:  29; 6HR PCP: TRACE;

COPPER HARBOR    N/A     28  23  81 S3        29.91F
6HR MIN TEMP:  27; 6HR MAX TEMP:  28; 6HR PCP:  0.03;

IRONWOOD       CLOUDY    34  23  64 SW10G20   29.81S WCI  26
6HR MIN TEMP:  28; 6HR MAX TEMP:  34;

$$

ABBREVIATIONS USED IN REMARKS
   TC - TEMPERATURE IN CELSIUS
  WCI - WIND CHILL INDEX
   HX - HEAT INDEX
  VSB - VISIBILITY




USA.gov is the U.S. government's official web portal to all federal, state and local government web resources and services.